SVFLIR Weather Reports


Display with metric or nautical units.
time (UTC)temp
F
wind
direction
speed
MPH
gust
MPH
rain 1hr
in
rain 24hr
in
rain mn
in
humidity
%
barometer
mb
20260504050644 76 233 10.0 19.0 0.00 0.00 0.00 100 1009.4
20260504050144 76 226 9.0 19.0 0.00 0.00 0.00 100 1009.4
20260504045908 77 267 14.0 19.0 0.00 0.00 0.00 100 1009.4
20260504044641 77 247 12.0 24.0 0.00 0.00 0.00 100 1009.4
20260504044141 77 254 12.0 24.0 0.00 0.00 0.00 100 1009.4
20260504043640 78 257 14.0 24.0 0.00 0.00 0.00 100 1009.4
20260504043139 78 261 17.0 23.0 0.00 0.00 0.00 100 1009.4
20260504042639 78 233 13.0 22.0 0.00 0.00 0.00 100 1009.4
20260504041137 78 253 10.0 25.0 0.00 0.00 0.00 100 1009.4
20260504040637 78 258 10.0 25.0 0.00 0.00 0.00 100 1009.4
20260504040136 79 257 11.0 24.0 0.00 0.00 0.00 100 1009.4
20260504035635 79 247 14.0 21.0 0.00 0.00 0.00 100 1009.4
20260504035134 79 255 15.0 21.0 0.00 0.00 0.00 100 1009.4
20260504034853 79 243 12.0 22.0 0.00 0.00 0.00 100 1009.4
20260504034134 79 272 16.0 22.0 0.00 0.00 0.00 100 1009.4
20260504033634 80 247 13.0 22.0 0.00 0.00 0.00 100 1009.4
20260504033133 80 261 14.0 21.0 0.00 0.00 0.00 100 1009.4
20260504032632 80 258 12.0 22.0 0.00 0.00 0.00 100 1009.4
20260504032131 80 262 11.0 23.0 0.00 0.00 0.00 100 1009.4
20260504031630 80 260 12.0 23.0 0.00 0.00 0.00 100 1009.4
20260504030630 80 241 14.0 21.0 0.00 0.00 0.00 100 1009.4
20260504030129 81 230 12.0 22.0 0.00 0.00 0.00 100 1009.4
20260504025629 81 258 14.0 26.0 0.00 0.00 0.00 100 1009.4
20260504025128 81 265 14.0 26.0 0.00 0.00 0.00 100 1009.4
20260504024628 81 257 17.0 25.0 0.00 0.00 0.00 100 1009.4
20260504024354 81 267 17.0 22.0 0.00 0.00 0.00 100 1009.4
20260504023626 81 243 17.0 25.0 0.00 0.00 0.00 100 1009.4
20260504023125 82 253 13.0 25.0 0.00 0.00 0.00 100 1009.4
20260504022625 83 247 17.0 25.0 0.00 0.00 0.00 100 1009.4
20260504022125 82 234 18.0 27.0 0.00 0.00 0.00 100 1009.4
20260504021624 82 254 14.0 27.0 0.00 0.00 0.00 100 1009.4
20260504021123 83 243 19.0 27.0 0.00 0.00 0.00 100 1009.4
20260504020623 83 262 17.0 30.0 0.00 0.00 0.00 100 1009.4
20260504020341 83 244 19.0 30.0 0.00 0.00 0.00 100 1009.4
20260504015622 83 240 18.0 29.0 0.00 0.00 0.00 100 1009.4
20260504015121 84 251 16.0 26.0 0.00 0.00 0.00 100 1009.4
20260504014620 83 251 17.0 27.0 0.00 0.00 0.00 100 1009.4
20260504014338 83 239 15.0 27.0 0.00 0.00 0.00 100 1009.4
20260504013619 84 265 18.0 26.0 0.00 0.00 0.00 100 1009.4
20260504013118 85 244 17.0 30.0 0.00 0.00 0.00 100 1009.4
20260504012618 85 248 16.0 30.0 0.00 0.00 0.00 100 1009.4
20260504012118 85 246 18.0 29.0 0.00 0.00 0.00 100 1009.4
20260504011617 85 255 13.0 26.0 0.00 0.00 0.00 100 1009.4
20260504010616 86 254 18.0 32.0 0.00 0.00 0.00 100 1009.4
20260504010115 87 254 18.0 32.0 0.00 0.00 0.00 100 1009.4
20260504005615 87 243 21.0 29.0 0.00 0.00 0.00 100 1009.4
20260504005114 87 264 20.0 29.0 0.00 0.00 0.00 100 1009.4
20260504004613 88 233 17.0 29.0 0.00 0.00 0.00 100 1009.4
20260504004113 88 257 15.0 29.0 0.00 0.00 0.00 100 1009.4
20260504003612 88 246 20.0 27.0 0.00 0.00 0.00 100 1009.4
20260504003331 89 243 16.0 24.0 0.00 0.00 0.00 100 1009.4
20260504002611 89 227 14.0 23.0 0.00 0.00 0.00 100 1009.4
20260504001611 89 250 15.0 21.0 0.00 0.00 0.00 100 1009.4
20260504001110 90 268 14.0 21.0 0.00 0.00 0.00 100 1009.4
20260504000609 90 268 16.0 21.0 0.00 0.00 0.00 100 1009.4
20260504000108 90 222 13.0 21.0 0.00 0.00 0.00 100 1009.4
20260503235830 90 271 7.0 17.0 0.00 0.00 0.00 100 1009.4
20260503235330 90 220 11.0 17.0 0.00 0.00 0.00 100 1009.4
20260503234829 91 253 10.0 18.0 0.00 0.00 0.00 100 1009.4
20260503234106 91 230 10.0 20.0 0.00 0.00 0.00 100 1009.4
20260503233606 90 257 9.0 23.0 0.00 0.00 0.00 100 1009.4
20260503233105 90 241 13.0 23.0 0.00 0.00 0.00 100 1009.4
20260503232605 91 267 12.0 22.0 0.00 0.00 0.00 100 1009.4
20260503232104 91 277 11.0 21.0 0.00 0.00 0.00 100 1009.4
20260503231824 92 220 6.0 14.0 0.00 0.00 0.00 100 1009.4
20260503230602 92 222 8.0 23.0 0.00 0.00 0.00 100 1009.4
20260503225600 91 240 11.0 25.0 0.00 0.00 0.00 100 1009.4
20260503225100 91 189 17.0 23.0 0.00 0.00 0.00 100 1009.4
20260503224559 92 205 5.0 13.0 0.00 0.00 0.00 100 1009.4
20260503224059 92 194 4.0 24.0 0.00 0.00 0.00 100 1009.4
20260503223558 91 225 8.0 24.0 0.00 0.00 0.00 100 1009.4
20260503223058 91 199 17.0 23.0 0.00 0.00 0.00 100 1009.4
20260503222557 91 196 15.0 22.0 0.00 0.00 0.00 100 1009.4
20260503221556 92 182 12.0 25.0 0.00 0.00 0.00 100 1009.4
20260503221055 92 196 13.0 24.0 0.00 0.00 0.00 100 1009.4
20260503220554 92 240 6.0 22.0 0.00 0.00 0.00 100 1009.4
20260503220053 90 222 8.0 24.0 0.00 0.00 0.00 100 1009.4
20260503215554 90 213 10.0 24.0 0.00 0.00 0.00 100 1009.4
20260503215053 91 191 14.0 23.0 0.00 0.00 0.00 100 1009.4
20260503214552 91 184 13.0 22.0 0.00 0.00 0.00 100 1009.4
20260503214051 91 172 13.0 21.0 0.00 0.00 0.00 100 1009.4
20260503213551 92 178 12.0 19.0 0.00 0.00 0.00 100 1009.4
20260503213050 91 223 1.0 21.0 0.00 0.00 0.00 100 1009.4
20260503212550 91 219 11.0 22.0 0.00 0.00 0.00 100 1009.4
20260503212049 91 178 15.0 22.0 0.00 0.00 0.00 100 1009.4
20260503211549 91 191 6.0 18.0 0.00 0.00 0.00 100 1009.4
20260503211048 92 243 9.0 18.0 0.00 0.00 0.00 100 1009.4
20260503210547 92 223 11.0 19.0 0.00 0.00 0.00 100 1009.4
20260503210047 92 244 11.0 19.0 0.00 0.00 0.00 100 1009.4
20260503205546 92 262 9.0 19.0 0.00 0.00 0.00 100 1009.4
20260503204545 93 209 9.0 15.0 0.00 0.00 0.00 100 1009.4
20260503204045 91 203 8.0 18.0 0.00 0.00 0.00 100 1009.4
20260503203543 92 208 9.0 18.0 0.00 0.00 0.00 100 1009.4
20260503203043 90 201 11.0 18.0 0.00 0.00 0.00 100 1009.4
20260503202543 90 144 7.0 14.0 0.00 0.00 0.00 100 1009.4
20260503202042 90 225 6.0 14.0 0.00 0.00 0.00 100 1009.4
20260503201541 90 185 10.0 20.0 0.00 0.00 0.00 100 1009.4
20260503201041 90 194 6.0 20.0 0.00 0.00 0.00 100 1009.4
20260503200540 92 137 13.0 20.0 0.00 0.00 0.00 100 1009.4
20260503200039 91 219 6.0 17.0 0.00 0.00 0.00 100 1009.4
20260503195539 90 208 8.0 17.0 0.00 0.00 0.00 100 1009.4
20260503195257 90 225 13.0 16.0 0.00 0.00 0.00 100 1009.4
20260503194538 91 194 7.0 21.0 0.00 0.00 0.00 100 1009.4
20260503194037 91 202 4.0 21.0 0.00 0.00 0.00 100 1009.4
20260503193536 90 163 9.0 21.0 0.00 0.00 0.00 100 1009.4
20260503193036 91 216 7.0 19.0 0.00 0.00 0.00 100 1009.4
20260503192535 90 178 9.0 19.0 0.00 0.00 0.00 100 1009.4
20260503192034 89 187 11.0 19.0 0.00 0.00 0.00 100 1009.4
20260503191534 89 158 13.0 19.0 0.00 0.00 0.00 100 1009.4
20260503191034 89 203 9.0 18.0 0.00 0.00 0.00 100 1009.4
20260503190533 88 195 7.0 23.0 0.00 0.00 0.00 100 1009.4
20260503190032 88 144 10.0 23.0 0.00 0.00 0.00 100 1009.4
20260503185532 88 175 14.0 22.0 0.00 0.00 0.00 100 1009.4
20260503185031 89 170 11.0 19.0 0.00 0.00 0.00 100 1009.4
20260503184530 88 178 8.0 19.0 0.00 0.00 0.00 100 1009.4
20260503184030 88 196 9.0 19.0 0.00 0.00 0.00 100 1009.4
20260503183530 88 181 11.0 21.0 0.00 0.00 0.00 100 1009.4
20260503183029 87 146 11.0 21.0 0.00 0.00 0.00 100 1009.4
20260503182528 87 163 11.0 22.0 0.00 0.00 0.00 100 1009.4
20260503182252 86 163 13.0 22.0 0.00 0.00 0.00 100 1009.4
20260503181754 87 135 15.0 21.0 0.00 0.00 0.00 100 1009.4
20260503181026 86 143 9.0 17.0 0.00 0.00 0.00 100 1009.4
20260503180526 86 167 8.0 17.0 0.00 0.00 0.00 100 1009.4
20260503180025 87 165 6.0 15.0 0.00 0.00 0.00 100 1009.4
20260503175524 86 137 7.0 18.0 0.00 0.00 0.00 100 1009.4
20260503175024 87 153 10.0 18.0 0.00 0.00 0.00 100 1009.4
20260503174523 86 188 9.0 18.0 0.00 0.00 0.00 100 1009.4
20260503174023 85 144 7.0 19.0 0.00 0.00 0.00 100 1009.4
20260503173522 84 198 9.0 19.0 0.00 0.00 0.00 100 1009.4
20260503173021 84 125 10.0 19.0 0.00 0.00 0.00 100 1009.4
20260503172521 83 163 11.0 19.0 0.00 0.00 0.00 100 1009.4
20260503172020 83 140 14.0 18.0 0.00 0.00 0.00 100 1009.4
20260503171520 82 113 11.0 18.0 0.00 0.00 0.00 100 1009.4
20260503171238 82 137 11.0 18.0 0.00 0.00 0.00 100 1009.4
20260503170518 82 120 11.0 20.0 0.00 0.00 0.00 100 1009.4
20260503151005 79 101 11.0 19.0 0.00 0.00 0.00 100 1009.4
20260503150725 79 122 12.0 19.0 0.00 0.00 0.00 100 1009.4
20260503130950 74 80 7.0 10.0 0.00 0.00 0.00 100 1009.4
20260503130450 73 109 6.0 8.0 0.00 0.00 0.00 100 1009.4
20260503130215 73 104 6.0 10.0 0.00 0.00 0.00 100 1009.4
20260503110435 74 84 7.0 8.0 0.00 0.00 0.00 100 1009.4
20260503090341 67 71 1.0 2.0 0.00 0.00 0.00 100 1009.4
20260503081144 68 81 0.0 0.0 0.00 0.00 0.00 100 1009.4
20260503080618 68 81 0.0 0.0 0.00 0.00 0.00 100 1009.4
20260503080331 68 81 0.0 2.0 0.00 0.00 0.00 100 1009.4
20260503072520 70 90 5.0 5.0 0.00 0.00 0.00 100 1009.4
20260503072019 69 71 2.0 3.0 0.00 0.00 0.00 100 1009.4
20260503071519 69 5 0.0 1.0 0.00 0.00 0.00 100 1009.4
20260503071008 70 5 0.0 0.0 0.00 0.00 0.00 100 1009.4
20260503070447 69 5 0.0 0.0 0.00 0.00 0.00 100 1009.4